This is the latest recevied weather packets stored in our database for station/object YO6IKB-10. If no packets are shown the sender has not sent any weather packets the latest 10 day(s).
| Time | Temp. | Humidity | Pressure | Rain* | Wind** | Luminosity | Snow |
|---|---|---|---|---|---|---|---|
| 1777491891 | 3.89° C | 80% | 1017.2 hPa | 0.51 mm | - | - | - |
| 1777491591 | 3.89° C | 80% | 1017.2 hPa | 0.51 mm | - | - | - |
| 1777491291 | 3.89° C | 80% | 1017.2 hPa | 0.51 mm | - | - | - |
| 1777490990 | 3.89° C | 79% | 1017.2 hPa | 0 mm | - | - | - |
| 1777490690 | 4.44° C | 77% | 1017 hPa | 0 mm | - | - | - |
| 1777490390 | 5° C | 75% | 1017.1 hPa | 0 mm | - | - | - |
| 1777490090 | 5° C | 74% | 1017.1 hPa | 0 mm | - | - | - |
| 1777489789 | 5° C | 73% | 1017 hPa | 0 mm | - | - | - |
| 1777489489 | 5.56° C | 71% | 1016.7 hPa | 0 mm | - | - | - |
| 1777489189 | 5.56° C | 71% | 1016.7 hPa | 0 mm | - | - | - |
| 1777488888 | 5.56° C | 71% | 1016.5 hPa | 0 mm | - | - | - |
| 1777488588 | 6.11° C | 71% | 1016.3 hPa | 0 mm | - | - | - |
| 1777488288 | 6.11° C | 70% | 1016 hPa | 0 mm | - | - | - |
| 1777487988 | 6.11° C | 69% | 1015.9 hPa | 0 mm | - | - | - |
| 1777487687 | 6.67° C | 68% | 1015.9 hPa | 0 mm | - | - | - |
| 1777487387 | 6.67° C | 67% | 1015.7 hPa | 0 mm | - | - | - |
| 1777487087 | 6.67° C | 67% | 1015.7 hPa | 0 mm | - | - | - |
| 1777486786 | 6.67° C | 67% | 1015.6 hPa | 0 mm | - | - | - |
| 1777486486 | 6.67° C | 68% | 1015.5 hPa | 0 mm | - | - | - |
| 1777486186 | 6.67° C | 68% | 1015.4 hPa | 0 mm | - | - | - |
| 1777485886 | 6.67° C | 67% | 1015.3 hPa | 0 mm | - | - | - |
| 1777485585 | 7.22° C | 65% | 1015.2 hPa | 0 mm | - | - | - |
| 1777485285 | 7.78° C | 62% | 1015.1 hPa | 0 mm | - | - | - |
| 1777484985 | 7.78° C | 61% | 1015 hPa | 0 mm | - | - | - |
| 1777484684 | 8.33° C | 60% | 1014.9 hPa | 0 mm | - | - | - |
* Rain latest hour (hover to see other rain measurements)
** Current wind speed in m/s (hover to see current wind gust speed)